| time (UTC) | temp F | wind direction | speed MPH | gust MPH | rain 1hr in | rain 24hr in | rain mn in | humidity % | barometer mb |
| 20260504025709 | 73 | 133 | 0.0 | 2.0 | 0.00 | 0.00 | 0.00 | 45 | 1011.6 |
| 20260504025205 | 73 | 222 | 4.0 | 6.0 | 0.00 | 0.00 | 0.00 | 44 | 1011.6 |
| 20260504024703 | 74 | 173 | 1.0 | 3.0 | 0.00 | 0.00 | 0.00 | 45 | 1011.6 |
| 20260504024159 | 75 | 10 | 2.0 | 2.0 | 0.00 | 0.00 | 0.00 | 42 | 1011.7 |
| 20260504023656 | 75 | 149 | 1.0 | 6.0 | 0.00 | 0.00 | 0.00 | 42 | 1011.5 |
| 20260504023152 | 75 | 165 | 1.0 | 1.0 | 0.00 | 0.00 | 0.00 | 44 | 1011.5 |
| 20260504022648 | 76 | 159 | 1.0 | 5.0 | 0.00 | 0.00 | 0.00 | 44 | 1011.5 |
| 20260504022144 | 76 | 179 | 2.0 | 2.0 | 0.00 | 0.00 | 0.00 | 42 | 1011.4 |
| 20260504021642 | 77 | 171 | 1.0 | 2.0 | 0.00 | 0.00 | 0.00 | 41 | 1011.4 |
| 20260504021139 | 77 | 152 | 3.0 | 6.0 | 0.00 | 0.00 | 0.00 | 41 | 1011.6 |
| 20260504020636 | 78 | 116 | 3.0 | 3.0 | 0.00 | 0.00 | 0.00 | 40 | 1011.7 |
| 20260504020132 | 78 | 156 | 1.0 | 5.0 | 0.00 | 0.00 | 0.00 | 40 | 1011.5 |
| 20260504015628 | 78 | 142 | 2.0 | 6.0 | 0.00 | 0.00 | 0.00 | 40 | 1011.4 |
| 20260504015125 | 79 | 233 | 2.0 | 6.0 | 0.00 | 0.00 | 0.00 | 40 | 1011.7 |
| 20260504014621 | 79 | 176 | 1.0 | 3.0 | 0.00 | 0.00 | 0.00 | 40 | 1011.6 |
| 20260504014118 | 80 | 70 | 1.0 | 3.0 | 0.00 | 0.00 | 0.00 | 39 | 1011.6 |
| 20260504013615 | 80 | 157 | 1.0 | 2.0 | 0.00 | 0.00 | 0.00 | 38 | 1011.6 |
| 20260504013112 | 81 | 20 | 4.0 | 5.0 | 0.00 | 0.00 | 0.00 | 37 | 1011.6 |
| 20260504012610 | 81 | 356 | 3.0 | 5.0 | 0.00 | 0.00 | 0.00 | 37 | 1011.9 |
| 20260504012108 | 82 | 187 | 2.0 | 3.0 | 0.00 | 0.00 | 0.00 | 37 | 1011.6 |
| 20260504011604 | 82 | 166 | 1.0 | 5.0 | 0.00 | 0.00 | 0.00 | 36 | 1011.8 |
| 20260504011100 | 82 | 239 | 3.0 | 6.0 | 0.00 | 0.00 | 0.00 | 36 | 1011.7 |
| 20260504010556 | 82 | 169 | 1.0 | 2.0 | 0.00 | 0.00 | 0.00 | 38 | 1011.9 |
| 20260504010052 | 82 | 156 | 2.0 | 3.0 | 0.00 | 0.00 | 0.00 | 36 | 1011.7 |
| 20260504005549 | 82 | 231 | 2.0 | 3.0 | 0.00 | 0.00 | 0.00 | 37 | 1011.9 |
| 20260504005046 | 83 | 189 | 3.0 | 5.0 | 0.00 | 0.00 | 0.00 | 37 | 1012.1 |
| 20260504004544 | 84 | 183 | 2.0 | 6.0 | 0.00 | 0.00 | 0.00 | 36 | 1012.0 |
| 20260504004041 | 84 | 96 | 1.0 | 2.0 | 0.00 | 0.00 | 0.00 | 36 | 1012.2 |
| 20260504003537 | 84 | 164 | 1.0 | 2.0 | 0.00 | 0.00 | 0.00 | 37 | 1012.0 |
| 20260504003034 | 84 | 203 | 3.0 | 3.0 | 0.00 | 0.00 | 0.00 | 36 | 1012.2 |
| 20260504002531 | 84 | 149 | 1.0 | 7.0 | 0.00 | 0.00 | 0.00 | 34 | 1012.2 |
| 20260504002029 | 84 | 132 | 1.0 | 3.0 | 0.00 | 0.00 | 0.00 | 34 | 1012.3 |
| 20260504001526 | 83 | 348 | 4.0 | 6.0 | 0.00 | 0.00 | 0.00 | 35 | 1012.3 |
| 20260504001022 | 83 | 98 | 6.0 | 7.0 | 0.00 | 0.00 | 0.00 | 34 | 1012.3 |
| 20260504000519 | 83 | 168 | 0.0 | 7.0 | 0.00 | 0.00 | 0.00 | 34 | 1012.3 |
| 20260504000017 | 83 | 27 | 6.0 | 9.0 | 0.00 | 0.00 | 0.00 | 34 | 1012.5 |
| 20260503235515 | 83 | 181 | 2.0 | 5.0 | 0.00 | 0.00 | 0.00 | 34 | 1012.5 |
| 20260503235011 | 84 | 339 | 4.0 | 7.0 | 0.00 | 0.00 | 0.00 | 35 | 1012.6 |
| 20260503234509 | 83 | 260 | 3.0 | 7.0 | 0.00 | 0.00 | 0.00 | 36 | 1012.5 |
| 20260503234007 | 82 | 187 | 1.0 | 5.0 | 0.00 | 0.00 | 0.00 | 36 | 1012.7 |
| 20260503233503 | 82 | 227 | 4.0 | 7.0 | 0.00 | 0.00 | 0.00 | 36 | 1012.9 |
| 20260503232959 | 83 | 91 | 5.0 | 7.0 | 0.00 | 0.00 | 0.00 | 37 | 1012.8 |
| 20260503232456 | 83 | 30 | 3.0 | 5.0 | 0.00 | 0.00 | 0.00 | 37 | 1012.9 |
| 20260503231954 | 83 | 6 | 3.0 | 6.0 | 0.00 | 0.00 | 0.00 | 37 | 1013.0 |
| 20260503231452 | 83 | 159 | 3.0 | 7.0 | 0.00 | 0.00 | 0.00 | 37 | 1012.8 |
| 20260503230948 | 82 | 156 | 3.0 | 7.0 | 0.00 | 0.00 | 0.00 | 38 | 1013.0 |
| 20260503230444 | 82 | 219 | 3.0 | 3.0 | 0.00 | 0.00 | 0.00 | 38 | 1013.2 |
| 20260503225942 | 82 | 305 | 1.0 | 3.0 | 0.00 | 0.00 | 0.00 | 38 | 1013.4 |
| 20260503225439 | 82 | 220 | 3.0 | 8.0 | 0.00 | 0.00 | 0.00 | 38 | 1013.2 |
| 20260503224934 | 82 | 229 | 2.0 | 6.0 | 0.00 | 0.00 | 0.00 | 38 | 1013.2 |
| 20260503224431 | 82 | 199 | 3.0 | 5.0 | 0.00 | 0.00 | 0.00 | 39 | 1013.5 |
| 20260503223929 | 81 | 230 | 3.0 | 7.0 | 0.00 | 0.00 | 0.00 | 38 | 1013.4 |
| 20260503223427 | 81 | 209 | 4.0 | 6.0 | 0.00 | 0.00 | 0.00 | 38 | 1013.4 |
| 20260503222922 | 81 | 190 | 3.0 | 3.0 | 0.00 | 0.00 | 0.00 | 37 | 1013.6 |
| 20260503222421 | 81 | 246 | 4.0 | 6.0 | 0.00 | 0.00 | 0.00 | 39 | 1013.6 |
| 20260503221919 | 80 | 236 | 3.0 | 6.0 | 0.00 | 0.00 | 0.00 | 40 | 1013.9 |
| 20260503221417 | 79 | 191 | 4.0 | 9.0 | 0.00 | 0.00 | 0.00 | 40 | 1013.9 |
| 20260503220913 | 80 | 269 | 7.0 | 8.0 | 0.00 | 0.00 | 0.00 | 39 | 1013.9 |
| 20260503220410 | 80 | 207 | 7.0 | 9.0 | 0.00 | 0.00 | 0.00 | 38 | 1013.9 |
| 20260503215907 | 81 | 359 | 5.0 | 6.0 | 0.00 | 0.00 | 0.00 | 39 | 1014.0 |
| 20260503215404 | 81 | 206 | 3.0 | 5.0 | 0.00 | 0.00 | 0.00 | 39 | 1013.9 |
| 20260503214901 | 79 | 218 | 4.0 | 6.0 | 0.00 | 0.00 | 0.00 | 40 | 1014.0 |
| 20260503214358 | 79 | 254 | 4.0 | 7.0 | 0.00 | 0.00 | 0.00 | 41 | 1014.1 |
| 20260503213856 | 79 | 29 | 5.0 | 7.0 | 0.00 | 0.00 | 0.00 | 40 | 1014.1 |
| 20260503213354 | 80 | 222 | 4.0 | 11.0 | 0.00 | 0.00 | 0.00 | 40 | 1014.2 |
| 20260503212850 | 80 | 232 | 3.0 | 6.0 | 0.00 | 0.00 | 0.00 | 40 | 1014.1 |
| 20260503212348 | 80 | 234 | 3.0 | 7.0 | 0.00 | 0.00 | 0.00 | 40 | 1014.2 |
| 20260503211845 | 79 | 245 | 3.0 | 5.0 | 0.00 | 0.00 | 0.00 | 42 | 1014.3 |
| 20260503211342 | 78 | 251 | 6.0 | 8.0 | 0.00 | 0.00 | 0.00 | 41 | 1014.3 |
| 20260503210837 | 78 | 132 | 2.0 | 5.0 | 0.00 | 0.00 | 0.00 | 42 | 1014.3 |
| 20260503210334 | 79 | 256 | 6.0 | 7.0 | 0.00 | 0.00 | 0.00 | 40 | 1014.4 |
| 20260503205829 | 79 | 243 | 4.0 | 6.0 | 0.00 | 0.00 | 0.00 | 41 | 1014.4 |
| 20260503205326 | 79 | 6 | 4.0 | 7.0 | 0.00 | 0.00 | 0.00 | 40 | 1014.4 |
| 20260503204823 | 79 | 282 | 5.0 | 6.0 | 0.00 | 0.00 | 0.00 | 41 | 1014.6 |
| 20260503204320 | 79 | 159 | 3.0 | 3.0 | 0.00 | 0.00 | 0.00 | 41 | 1014.8 |
| 20260503203817 | 79 | 244 | 4.0 | 6.0 | 0.00 | 0.00 | 0.00 | 42 | 1014.5 |
| 20260503203315 | 78 | 140 | 1.0 | 3.0 | 0.00 | 0.00 | 0.00 | 43 | 1014.6 |
| 20260503202811 | 78 | 233 | 3.0 | 5.0 | 0.00 | 0.00 | 0.00 | 43 | 1014.7 |
| 20260503202310 | 79 | 353 | 6.0 | 14.0 | 0.00 | 0.00 | 0.00 | 42 | 1014.7 |
| 20260503201807 | 78 | 164 | 1.0 | 2.0 | 0.00 | 0.00 | 0.00 | 44 | 1014.9 |
| 20260503201304 | 79 | 177 | 6.0 | 8.0 | 0.00 | 0.00 | 0.00 | 42 | 1015.0 |
| 20260503200802 | 79 | 155 | 1.0 | 2.0 | 0.00 | 0.00 | 0.00 | 43 | 1015.0 |
| 20260503200257 | 78 | 205 | 3.0 | 5.0 | 0.00 | 0.00 | 0.00 | 45 | 1015.0 |
| 20260503195755 | 78 | 175 | 3.0 | 8.0 | 0.00 | 0.00 | 0.00 | 44 | 1014.9 |
| 20260503195251 | 78 | 254 | 3.0 | 5.0 | 0.00 | 0.00 | 0.00 | 44 | 1015.1 |
| 20260503194749 | 78 | 126 | 2.0 | 3.0 | 0.00 | 0.00 | 0.00 | 45 | 1015.3 |
| 20260503194245 | 77 | 164 | 1.0 | 2.0 | 0.00 | 0.00 | 0.00 | 46 | 1015.2 |
| 20260503193741 | 77 | 146 | 4.0 | 7.0 | 0.00 | 0.00 | 0.00 | 46 | 1015.4 |
| 20260503193237 | 77 | 14 | 3.0 | 5.0 | 0.00 | 0.00 | 0.00 | 48 | 1015.4 |
| 20260503192733 | 77 | 231 | 7.0 | 8.0 | 0.00 | 0.00 | 0.00 | 44 | 1015.5 |
| 20260503192228 | 77 | 116 | 3.0 | 3.0 | 0.00 | 0.00 | 0.00 | 46 | 1015.4 |
| 20260503191725 | 77 | 100 | 4.0 | 6.0 | 0.00 | 0.00 | 0.00 | 45 | 1015.4 |
| 20260503191222 | 76 | 143 | 1.0 | 7.0 | 0.00 | 0.00 | 0.00 | 47 | 1015.6 |
| 20260503190719 | 77 | 144 | 4.0 | 7.0 | 0.00 | 0.00 | 0.00 | 46 | 1015.8 |
| 20260503190215 | 76 | 342 | 4.0 | 6.0 | 0.00 | 0.00 | 0.00 | 47 | 1015.8 |
| 20260503185713 | 76 | 177 | 3.0 | 5.0 | 0.00 | 0.00 | 0.00 | 45 | 1015.7 |
| 20260503185208 | 76 | 78 | 3.0 | 5.0 | 0.00 | 0.00 | 0.00 | 48 | 1016.0 |
| 20260503184703 | 76 | 112 | 2.0 | 7.0 | 0.00 | 0.00 | 0.00 | 48 | 1016.1 |
| 20260503184200 | 76 | 118 | 1.0 | 7.0 | 0.00 | 0.00 | 0.00 | 48 | 1016.1 |
| 20260503183656 | 75 | 86 | 3.0 | 7.0 | 0.00 | 0.00 | 0.00 | 48 | 1016.2 |
| 20260503183154 | 76 | 115 | 4.0 | 7.0 | 0.00 | 0.00 | 0.00 | 48 | 1016.4 |
| 20260503182651 | 74 | 159 | 0.0 | 2.0 | 0.00 | 0.00 | 0.00 | 49 | 1015.9 |
| 20260503182150 | 74 | 130 | 4.0 | 7.0 | 0.00 | 0.00 | 0.00 | 50 | 1016.3 |
| 20260503181646 | 74 | 136 | 5.0 | 6.0 | 0.00 | 0.00 | 0.00 | 51 | 1016.3 |
| 20260503181143 | 73 | 189 | 2.0 | 7.0 | 0.00 | 0.00 | 0.00 | 51 | 1016.3 |
| 20260503180640 | 73 | 165 | 6.0 | 9.0 | 0.00 | 0.00 | 0.00 | 51 | 1016.5 |
| 20260503180138 | 73 | 34 | 5.0 | 11.0 | 0.00 | 0.00 | 0.00 | 52 | 1016.3 |
| 20260503175635 | 73 | 9 | 5.0 | 7.0 | 0.00 | 0.00 | 0.00 | 51 | 1016.2 |
| 20260503175132 | 74 | 64 | 5.0 | 7.0 | 0.00 | 0.00 | 0.00 | 52 | 1016.3 |
| 20260503174623 | 73 | 130 | 3.0 | 6.0 | 0.00 | 0.00 | 0.00 | 52 | 1016.5 |
| 20260503174120 | 72 | 155 | 1.0 | 6.0 | 0.00 | 0.00 | 0.00 | 52 | 1016.4 |
| 20260503173615 | 71 | 249 | 3.0 | 5.0 | 0.00 | 0.00 | 0.00 | 55 | 1016.5 |
| 20260503173112 | 71 | 178 | 1.0 | 2.0 | 0.00 | 0.00 | 0.00 | 57 | 1016.3 |
| 20260503172609 | 71 | 220 | 5.0 | 6.0 | 0.00 | 0.00 | 0.00 | 52 | 1016.5 |
| 20260503172106 | 71 | 62 | 4.0 | 6.0 | 0.00 | 0.00 | 0.00 | 52 | 1016.6 |
| 20260503171602 | 71 | 183 | 2.0 | 2.0 | 0.00 | 0.00 | 0.00 | 53 | 1016.6 |
| 20260503171100 | 72 | 95 | 5.0 | 8.0 | 0.00 | 0.00 | 0.00 | 51 | 1016.6 |
| 20260503170556 | 71 | 183 | 2.0 | 3.0 | 0.00 | 0.00 | 0.00 | 52 | 1016.5 |
| 20260503150949 | 60 | 167 | 0.0 | 1.0 | 0.00 | 0.00 | 0.00 | 74 | 1017.0 |
| 20260503150445 | 59 | 157 | 0.0 | 0.0 | 0.00 | 0.00 | 0.00 | 78 | 1016.9 |
| 20260503131331 | 51 | 151 | 0.0 | 0.0 | 0.00 | 0.00 | 0.00 | 90 | 1017.0 |
| 20260503130829 | 51 | 151 | 0.0 | 0.0 | 0.00 | 0.00 | 0.00 | 90 | 1016.8 |
| 20260503130327 | 51 | 149 | 0.0 | 0.0 | 0.00 | 0.00 | 0.00 | 90 | 1016.8 |
| 20260503110720 | 53 | 150 | 0.0 | 1.0 | 0.00 | 0.00 | 0.00 | 84 | 1017.0 |
| 20260503110218 | 53 | 151 | 0.0 | 0.0 | 0.00 | 0.00 | 0.00 | 83 | 1017.1 |
| 20260503100144 | 55 | 112 | 2.0 | 2.0 | 0.00 | 0.00 | 0.00 | 79 | 1017.0 |
| 20260503081538 | 57 | 148 | 0.0 | 0.0 | 0.00 | 0.00 | 0.00 | 73 | 1017.2 |
| 20260503081036 | 57 | 147 | 0.0 | 1.0 | 0.00 | 0.00 | 0.00 | 73 | 1017.2 |
| 20260503080531 | 57 | 149 | 0.0 | 1.0 | 0.00 | 0.00 | 0.00 | 72 | 1017.0 |
| 20260503072506 | 60 | 138 | 1.0 | 1.0 | 0.00 | 0.00 | 0.00 | 65 | 1017.2 |
| 20260503072003 | 60 | 106 | 2.0 | 2.0 | 0.00 | 0.00 | 0.00 | 64 | 1017.1 |
| 20260503071500 | 60 | 122 | 1.0 | 1.0 | 0.00 | 0.00 | 0.00 | 64 | 1017.0 |
| 20260503070955 | 60 | 134 | 1.0 | 2.0 | 0.00 | 0.00 | 0.00 | 65 | 1017.0 |
| 20260503070453 | 60 | 132 | 1.0 | 1.0 | 0.00 | 0.00 | 0.00 | 64 | 1017.1 |
| 20260503054906 | 61 | 143 | 0.0 | 1.0 | 0.00 | 0.00 | 0.00 | 69 | 1016.8 |
| 20260503054402 | 61 | 118 | 2.0 | 2.0 | 0.00 | 0.00 | 0.00 | 68 | 1016.7 |
| 20260503053900 | 60 | 120 | 1.0 | 2.0 | 0.00 | 0.00 | 0.00 | 69 | 1016.7 |
| 20260503053358 | 60 | 131 | 1.0 | 2.0 | 0.00 | 0.00 | 0.00 | 70 | 1016.8 |
| 20260503052853 | 60 | 128 | 1.0 | 2.0 | 0.00 | 0.00 | 0.00 | 70 | 1016.8 |
| 20260503052351 | 60 | 145 | 0.0 | 1.0 | 0.00 | 0.00 | 0.00 | 71 | 1016.7 |
| 20260503051847 | 60 | 154 | 1.0 | 2.0 | 0.00 | 0.00 | 0.00 | 71 | 1016.8 |
| 20260503051343 | 60 | 153 | 1.0 | 2.0 | 0.00 | 0.00 | 0.00 | 72 | 1016.8 |
| 20260503050841 | 60 | 147 | 0.0 | 1.0 | 0.00 | 0.00 | 0.00 | 71 | 1016.8 |
| 20260503050336 | 60 | 164 | 0.0 | 2.0 | 0.00 | 0.00 | 0.00 | 71 | 1016.7 |
| 20260503045834 | 60 | 147 | 1.0 | 2.0 | 0.00 | 0.00 | 0.00 | 71 | 1016.7 |
| 20260503045332 | 60 | 152 | 1.0 | 1.0 | 0.00 | 0.00 | 0.00 | 70 | 1016.8 |
| 20260503044828 | 60 | 142 | 1.0 | 1.0 | 0.00 | 0.00 | 0.00 | 70 | 1016.8 |
| 20260503044325 | 61 | 152 | 0.0 | 1.0 | 0.00 | 0.00 | 0.00 | 70 | 1016.7 |
| 20260503043822 | 61 | 153 | 1.0 | 1.0 | 0.00 | 0.00 | 0.00 | 70 | 1016.6 |
| 20260503043319 | 61 | 147 | 0.0 | 1.0 | 0.00 | 0.00 | 0.00 | 70 | 1016.7 |
| 20260503042815 | 61 | 148 | 0.0 | 0.0 | 0.00 | 0.00 | 0.00 | 69 | 1016.5 |
| 20260503042312 | 62 | 146 | 0.0 | 1.0 | 0.00 | 0.00 | 0.00 | 68 | 1016.3 |
| 20260503041808 | 62 | 146 | 1.0 | 1.0 | 0.00 | 0.00 | 0.00 | 68 | 1016.2 |
| 20260503041306 | 62 | 146 | 0.0 | 1.0 | 0.00 | 0.00 | 0.00 | 67 | 1016.5 |
| 20260503040803 | 62 | 144 | 0.0 | 1.0 | 0.00 | 0.00 | 0.00 | 67 | 1016.3 |
| 20260503040301 | 63 | 142 | 1.0 | 1.0 | 0.00 | 0.00 | 0.00 | 66 | 1016.3 |
| 20260503035757 | 63 | 146 | 0.0 | 1.0 | 0.00 | 0.00 | 0.00 | 66 | 1016.0 |
| 20260503035255 | 63 | 140 | 0.0 | 1.0 | 0.00 | 0.00 | 0.00 | 65 | 1016.0 |
| 20260503034752 | 64 | 139 | 0.0 | 1.0 | 0.00 | 0.00 | 0.00 | 65 | 1016.0 |
| 20260503034249 | 64 | 137 | 0.0 | 1.0 | 0.00 | 0.00 | 0.00 | 63 | 1015.9 |
| 20260503033746 | 65 | 131 | 1.0 | 2.0 | 0.00 | 0.00 | 0.00 | 63 | 1015.8 |
| 20260503033244 | 66 | 126 | 1.0 | 2.0 | 0.00 | 0.00 | 0.00 | 62 | 1015.8 |
| 20260503032742 | 66 | 125 | 2.0 | 2.0 | 0.00 | 0.00 | 0.00 | 62 | 1015.7 |
| 20260503032240 | 67 | 154 | 0.0 | 1.0 | 0.00 | 0.00 | 0.00 | 62 | 1015.8 |
| 20260503031737 | 67 | 160 | 0.0 | 1.0 | 0.00 | 0.00 | 0.00 | 59 | 1015.7 |
| 20260503031235 | 67 | 152 | 0.0 | 1.0 | 0.00 | 0.00 | 0.00 | 61 | 1015.7 |
| 20260503030731 | 68 | 172 | 1.0 | 1.0 | 0.00 | 0.00 | 0.00 | 60 | 1015.7 |
| 20260503030227 | 68 | 126 | 0.0 | 1.0 | 0.00 | 0.00 | 0.00 | 59 | 1015.7 |